Weather History for KJAX - August, 2013

Change the Weather History Date:

Wednesday, August 21, 2013

  Actual Average Record
Temperature  
Mean Temperature 81 °F 82 °F  
Max Temperature 87 °F 91 °F 101 °F (1901)
Min Temperature 74 °F 73 °F 66 °F (1961)
Degree Days  
Heating Degree Days 0 0  
Month to date heating degree days 0 0  
Since 1 June heating degree days 0 0  
Since 1 July heating degree days 0 0  
Cooling Degree Days 16 17  
Month to date cooling degree days 378 358  
Year to date cooling degree days 1777 1827  
Since 1 June cooling degree days 1341 1343  
Growing Degree Days 30 (Base 50)    
Moisture  
Dew Point 75 °F    
Average Humidity 81    
Maximum Humidity 94    
Minimum Humidity 68    
Precipitation  
Precipitation 0.31 in 0.22 in 3.83 in (1953)
Month to date precipitation 4.15 4.30  
Year to date precipitation 34.56 32.86  
Snow  
Snow 0.00 in 0.00 in 0.00 in (2002)
Month to date snowfall 0.0 0.0  
Since 1 June snowfall 0.0 0.0  
Since 1 July snowfall 0.0 0.0  
Snow Depth 0.00 in    
Sea Level Pressure  
Sea Level Pressure 30.14 in    
Wind  
Wind Speed 5 mph (East)    
Max Wind Speed 22 mph    
Max Gust Speed 26 mph    
Visibility 9 miles    
Events Rain , Thunderstorm    
T = Trace of Precipitation, MM = Missing Value Source: NWS Daily Summary

Daily Weather History Graph

Daily Weather History Graph

Search for Another Location

Airport or City:

Trip Planner

Search our weather history database for the weather conditions in past years. The results will help you decide how hot, cold, wet, or windy it might be!

Date:

Astronomy

Aug. 21, 2013 Rise Set
Actual Time 6:57 AM EDT 8:01 PM EDT
Civil Twilight 6:32 AM EDT 8:26 PM EDT
Nautical Twilight 6:02 AM EDT 8:56 PM EDT
Astronomical Twilight 5:32 AM EDT 9:26 PM EDT
Moon 8:19 PM EDT (8/21) 7:29 AM EDT (8/21)
Length of Visible Light 13h 54m
Length of Day
13h 04m
Full, 100% of the Moon is Illuminated
Aug 21
Full
Aug 28
Last Quarter
Sep 5
New
Sep 12
First Quarter
Sep 19
Full

Hourly Weather History & Observations

Time (EDT) Temp. Heat Index Dew Point Humidity Pressure Visibility Wind Dir Wind Speed Gust Speed Precip Events Conditions
12:56 AM 75.9 °F - 73.9 °F 94% 30.12 in 10.0 mi ENE 4.6 mph - N/A   Partly Cloudy
1:56 AM 75.9 °F - 73.9 °F 94% 30.11 in 10.0 mi ENE 4.6 mph - N/A   Partly Cloudy
2:56 AM 75.9 °F - 73.9 °F 94% 30.10 in 10.0 mi ENE 4.6 mph - N/A   Scattered Clouds
3:56 AM 77.0 °F - 75.0 °F 94% 30.10 in 10.0 mi Calm Calm - N/A   Scattered Clouds
4:56 AM 75.0 °F - 73.9 °F 96% 30.10 in 10.0 mi Calm Calm - N/A   Scattered Clouds
5:56 AM 75.0 °F - 73.9 °F 96% 30.11 in 10.0 mi Calm Calm - N/A   Scattered Clouds
6:56 AM 75.0 °F - 73.0 °F 94% 30.12 in 10.0 mi Calm Calm - N/A   Scattered Clouds
7:56 AM 77.0 °F - 75.0 °F 94% 30.14 in 10.0 mi Calm Calm - N/A   Scattered Clouds
8:56 AM 82.9 °F 91.8 °F 77.0 °F 82% 30.15 in 10.0 mi Calm Calm - N/A   Scattered Clouds
9:48 AM 84.2 °F 92.3 °F 75.2 °F 74% 30.16 in 10.0 mi ESE 4.6 mph - N/A Thunderstorm Thunderstorm
9:56 AM 84.0 °F 92.6 °F 75.9 °F 76% 30.17 in 10.0 mi ESE 5.8 mph - N/A Thunderstorm Thunderstorm
10:47 AM 75.2 °F - 73.4 °F 94% 30.19 in 2.0 mi SE 12.7 mph 26.5 mph 0.02 in Rain , Thunderstorm Heavy Thunderstorms and Rain
10:56 AM 75.0 °F - 73.0 °F 94% 30.19 in 1.0 mi ENE 10.4 mph - 0.26 in Rain , Thunderstorm Heavy Thunderstorms and Rain
10:59 AM 75.2 °F - 73.4 °F 94% 30.19 in 6.0 mi ENE 8.1 mph - 0.04 in Rain , Thunderstorm Heavy Thunderstorms and Rain
11:24 AM 77.0 °F - 75.2 °F 94% 30.18 in 10.0 mi ENE 3.5 mph - 0.05 in Thunderstorm Thunderstorm
11:45 AM 78.8 °F - 73.4 °F 83% 30.18 in 10.0 mi East 5.8 mph - 0.05 in   Mostly Cloudy
11:56 AM 81.0 °F 86.7 °F 75.0 °F 82% 30.18 in 10.0 mi East 4.6 mph - 0.05 in   Mostly Cloudy
12:56 PM 87.1 °F 99.8 °F 78.1 °F 74% 30.17 in 10.0 mi NE 11.5 mph - N/A   Mostly Cloudy
1:56 PM 87.1 °F 96.3 °F 75.0 °F 67% 30.16 in 10.0 mi East 13.8 mph - N/A   Mostly Cloudy
2:56 PM 82.9 °F 91.8 °F 77.0 °F 82% 30.14 in 10.0 mi East 11.5 mph - 0.00 in Rain Light Rain
3:56 PM 82.0 °F 89.4 °F 75.9 °F 82% 30.13 in 10.0 mi SSE 6.9 mph - 0.00 in   Mostly Cloudy
4:56 PM 86.0 °F 95.1 °F 75.0 °F 70% 30.11 in 10.0 mi East 10.4 mph - N/A   Mostly Cloudy
5:56 PM 84.9 °F 93.3 °F 75.0 °F 72% 30.11 in 10.0 mi East 10.4 mph - N/A   Mostly Cloudy
6:56 PM 84.0 °F 91.9 °F 75.0 °F 74% 30.11 in 10.0 mi East 8.1 mph - N/A   Mostly Cloudy
7:56 PM 82.0 °F 89.4 °F 75.9 °F 82% 30.10 in 10.0 mi East 6.9 mph - N/A   Mostly Cloudy
8:56 PM 79.0 °F - 75.9 °F 90% 30.11 in 10.0 mi Calm Calm - N/A   Mostly Cloudy
9:56 PM 78.1 °F - 75.9 °F 93% 30.12 in 10.0 mi Calm Calm - N/A   Scattered Clouds
10:56 PM 78.1 °F - 75.9 °F 93% 30.12 in 10.0 mi NE 3.5 mph - N/A   Mostly Cloudy
11:56 PM 78.1 °F - 75.9 °F 93% 30.13 in 10.0 mi East 3.5 mph - N/A   Mostly Cloudy